Northeast Philadelphia, PA

4:32 PM EDT on May 24, 2018 (GMT -0400)
Northeast Philadelphia

Weather History for KPNE - February, 2012

Change the Weather History Date:

Sunday, February 19, 2012

  Actual Average Record
Temperature  
Mean Temperature 38 °F -  
Max Temperature 45 °F 42 °F 70 °F (2017)
Min Temperature 30 °F 26 °F 8 °F (2015)
Degree Days  
Heating Degree Days 28    
Moisture  
Dew Point 21 °F    
Average Humidity 52    
Maximum Humidity 72    
Minimum Humidity 37    
Precipitation  
Precipitation 0.00 in - - ()
Sea Level Pressure  
Sea Level Pressure 30.04 in    
Wind  
Wind Speed 6 mph (NNE)    
Max Wind Speed 12 mph    
Max Gust Speed -    
Visibility 10 miles    
Events      
Averages and records for this station are not official NWS values.
T = Trace of Precipitation, MM = Missing Value Source: NWS Daily Summary

Daily Weather History Graph

Daily Weather History Graph

Search for Another Location

Airport or City:

Astronomy

Feb. 19, 2012 Rise Set
Actual Time 6:48 AM EST 5:39 PM EST
Civil Twilight 6:20 AM EST 6:07 PM EST
Nautical Twilight 5:49 AM EST 6:39 PM EST
Astronomical Twilight 5:17 AM EST 7:10 PM EST
Moon 5:07 AM EST (2/19) 3:38 PM EST (2/19)
Length of Visible Light 11h 46m
Length of Day
10h 51m
Waning Crescent, 5% of the Moon is Illuminated
Feb 19
Waning Crescent
Feb 21
New
Feb 29
First Quarter
Mar 8
Full
Mar 14
Last Quarter

Hourly Weather History & Observations

Time (EST) Temp. Windchill Dew Point Humidity Pressure Visibility Wind Dir Wind Speed Gust Speed Precip Events Conditions
12:54 AM 37.0 °F 34.5 °F 23.0 °F 57% 30.08 in 10.0 mi NNW 3.5 mph - N/A   Clear
1:54 AM 35.1 °F 30.1 °F 23.0 °F 61% 30.09 in 10.0 mi NNW 5.8 mph - N/A   Clear
2:54 AM 35.1 °F 32.2 °F 21.9 °F 59% 30.09 in 10.0 mi NNW 3.5 mph - N/A   Clear
3:54 AM 33.8 °F 26.4 °F 23.0 °F 65% 30.08 in 10.0 mi NNW 9.2 mph - N/A   Clear
4:54 AM 33.1 °F 28.7 °F 21.9 °F 64% 30.08 in 10.0 mi NW 4.6 mph - N/A   Clear
5:54 AM 32.0 °F 26.4 °F 21.9 °F 66% 30.09 in 10.0 mi NW 5.8 mph - N/A   Clear
6:54 AM 30.0 °F 24.1 °F 21.9 °F 72% 30.09 in 10.0 mi North 5.8 mph - N/A   Clear
7:54 AM 33.8 °F 26.4 °F 21.2 °F 60% 30.09 in 10.0 mi North 9.2 mph - N/A   Clear
8:54 AM 37.0 °F 31.6 °F 23.0 °F 57% 30.12 in 10.0 mi NNE 6.9 mph - N/A   Clear
9:54 AM 37.9 °F 32.1 °F 21.9 °F 53% 30.12 in 10.0 mi NE 8.1 mph - N/A   Clear
10:54 AM 42.1 °F 35.7 °F 21.9 °F 45% 30.11 in 10.0 mi ENE 11.5 mph - N/A   Clear
11:54 AM 43.0 °F 38.2 °F 21.9 °F 43% 30.10 in 10.0 mi East 8.1 mph - N/A   Clear
12:54 PM 42.1 °F 40.2 °F 21.9 °F 45% 30.07 in 10.0 mi NNE 3.5 mph - N/A   Clear
1:54 PM 43.0 °F 40.3 °F 21.0 °F 42% 30.03 in 10.0 mi ENE 4.6 mph - N/A   Clear
2:54 PM 44.1 °F 40.8 °F 21.0 °F 40% 30.01 in 10.0 mi NE 5.8 mph - N/A   Clear
3:54 PM 45.0 °F 40.6 °F 19.9 °F 37% 29.99 in 10.0 mi North 8.1 mph - N/A   Clear
4:54 PM 43.0 °F 39.5 °F 19.0 °F 38% 29.99 in 10.0 mi ENE 5.8 mph - N/A   Clear
5:54 PM 39.9 °F 35.8 °F 19.9 °F 45% 29.99 in 10.0 mi NE 5.8 mph - N/A   Clear
6:54 PM 39.2 °F 33.6 °F 21.2 °F 49% 29.96 in 10.0 mi NE 8.1 mph - N/A   Clear
7:54 PM 39.9 °F 34.5 °F 19.9 °F 45% 29.94 in 10.0 mi ENE 8.1 mph - N/A   Clear
8:54 PM 39.0 °F 35.7 °F 21.0 °F 49% 29.96 in 10.0 mi NE 4.6 mph - N/A   Clear
9:54 PM 39.0 °F 33.4 °F 19.9 °F 46% 29.97 in 10.0 mi North 8.1 mph - N/A   Clear
10:54 PM 37.9 °F 30.9 °F 19.9 °F 48% 29.97 in 10.0 mi North 10.4 mph - N/A   Clear
11:54 PM 37.0 °F 29.8 °F 19.9 °F 50% 29.98 in 10.0 mi North 10.4 mph - N/A   Clear